Location: Dob?e?
(49.9411°N, 15.1496°E)
Time: 17:57:48
(UTC+00:00)

NOAA 18 - Pass Details

Date: 01 November 2021
Orbit: 840 x 861 km, 99.0° (Epoch: 01 December)

Event Time Altitude Azimuth Distance (km) Brightness Sun altitude
Exits shadow 19:08:16 12° 5° (N) 2,341 7.6 -34.2°
Drops below altitude 10° 19:08:48 10° 2° (N) 2,511 7.8 -34.3°
Sets 19:11:27 0° 352° (N) 3,452 8.7 -34.7°
